Location: Moscow
(55.7500°N, 37.5830°E)
Time: 12:48:29
(UTC+03:00)

S-56A Canister/Altair - Pass Details

Date: 05 December 2021
Orbit: 633 x 2499 km, 38.9° (Epoch: 17 January)

Event Time Altitude Azimuth Distance (km) Brightness Sun altitude
Rises 23:07:05 0° 208° (SSW) 5,411 - -54.1°
Reaches altitude 10° 23:12:56 10° 189° (S) 4,003 - -54.4°
Maximum altitude 23:17:56 15° 159° (SSE) 3,225 - -54.8°
Drops below altitude 10° 23:22:09 10° 128° (SE) 3,247 - -55.0°
Sets 23:26:02 0° 105° (ESE) 3,874 - -55.2°
